Location: Unnamed
(42.1164°N, 2.7652°E)
Time: 21:28:02
(UTC+02:00)

ISS - Pass Details

Date: 09 May 2021
Orbit: 417 x 422 km, 51.6° (Epoch: 14 June)

Event Time Altitude Azimuth Distance (km) Brightness Sun altitude
Rises 05:08:10 0° 304° (NW) 2,374 -0.1 -14.4°
Reaches altitude 10° 05:10:44 10° 324° (NW) 1,510 -0.9 -14.0°
Maximum altitude 05:13:11 18° 10° (N) 1,108 -1.0 -13.6°
Drops below altitude 10° 05:15:37 10° 56° (ENE) 1,510 0.5 -13.3°
Sets 05:18:11 0° 76° (ENE) 2,374 1.4 -12.9°
